| time (UTC) | temp F | wind direction | speed MPH | gust MPH | rain 1hr in | rain 24hr in | rain mn in | humidity % | barometer mb |
| 20260504232850 | 71 | 233 | 6.0 | 8.0 | 0.00 | 0.00 | 0.00 | 51 | 1006.9 |
| 20260504232347 | 71 | 228 | 6.0 | 9.0 | 0.00 | 0.00 | 0.00 | 52 | 1007.0 |
| 20260504231844 | 71 | 214 | 5.0 | 7.0 | 0.00 | 0.00 | 0.00 | 54 | 1007.2 |
| 20260504231341 | 72 | 201 | 5.0 | 9.0 | 0.00 | 0.00 | 0.00 | 54 | 1007.2 |
| 20260504230837 | 72 | 199 | 4.0 | 10.0 | 0.00 | 0.00 | 0.00 | 53 | 1007.3 |
| 20260504230335 | 73 | 215 | 6.0 | 9.0 | 0.00 | 0.00 | 0.00 | 52 | 1007.5 |
| 20260504225833 | 73 | 176 | 8.0 | 10.0 | 0.00 | 0.00 | 0.00 | 51 | 1007.4 |
| 20260504225329 | 73 | 164 | 7.0 | 11.0 | 0.00 | 0.00 | 0.00 | 49 | 1007.2 |
| 20260504224827 | 73 | 160 | 9.0 | 14.0 | 0.00 | 0.00 | 0.00 | 51 | 1007.2 |
| 20260504224323 | 73 | 191 | 8.0 | 11.0 | 0.00 | 0.00 | 0.00 | 51 | 1007.3 |
| 20260504223820 | 73 | 205 | 7.0 | 10.0 | 0.00 | 0.00 | 0.00 | 51 | 1007.2 |
| 20260504223316 | 73 | 225 | 3.0 | 4.0 | 0.00 | 0.00 | 0.00 | 52 | 1007.4 |
| 20260504222813 | 74 | 240 | 4.0 | 7.0 | 0.00 | 0.00 | 0.00 | 50 | 1007.5 |
| 20260504222309 | 74 | 210 | 8.0 | 10.0 | 0.00 | 0.00 | 0.00 | 49 | 1007.6 |
| 20260504221808 | 74 | 245 | 7.0 | 14.0 | 0.00 | 0.00 | 0.00 | 49 | 1007.8 |
| 20260504221304 | 74 | 194 | 7.0 | 10.0 | 0.00 | 0.00 | 0.00 | 50 | 1007.8 |
| 20260504220801 | 74 | 226 | 6.0 | 8.0 | 0.00 | 0.00 | 0.00 | 51 | 1007.9 |
| 20260504220258 | 74 | 209 | 4.0 | 7.0 | 0.00 | 0.00 | 0.00 | 51 | 1007.8 |
| 20260504215755 | 75 | 192 | 7.0 | 9.0 | 0.00 | 0.00 | 0.00 | 50 | 1007.8 |
| 20260504215251 | 75 | 248 | 5.0 | 7.0 | 0.00 | 0.00 | 0.00 | 50 | 1007.8 |
| 20260504214747 | 74 | 199 | 4.0 | 6.0 | 0.00 | 0.00 | 0.00 | 52 | 1007.9 |
| 20260504214244 | 74 | 238 | 5.0 | 7.0 | 0.00 | 0.00 | 0.00 | 52 | 1008.1 |
| 20260504213741 | 74 | 199 | 6.0 | 9.0 | 0.00 | 0.00 | 0.00 | 50 | 1008.3 |
| 20260504213237 | 73 | 227 | 6.0 | 9.0 | 0.00 | 0.00 | 0.00 | 51 | 1008.3 |
| 20260504212734 | 73 | 239 | 6.0 | 7.0 | 0.00 | 0.00 | 0.00 | 50 | 1008.2 |
| 20260504212231 | 73 | 230 | 5.0 | 9.0 | 0.00 | 0.00 | 0.00 | 51 | 1008.2 |
| 20260504211729 | 73 | 222 | 4.0 | 8.0 | 0.00 | 0.00 | 0.00 | 53 | 1008.1 |
| 20260504211224 | 73 | 253 | 8.0 | 10.0 | 0.00 | 0.00 | 0.00 | 50 | 1008.2 |
| 20260504210722 | 73 | 232 | 4.0 | 11.0 | 0.00 | 0.00 | 0.00 | 52 | 1008.3 |
| 20260504210219 | 74 | 248 | 9.0 | 11.0 | 0.00 | 0.00 | 0.00 | 48 | 1008.3 |
| 20260504205716 | 75 | 217 | 6.0 | 8.0 | 0.00 | 0.00 | 0.00 | 49 | 1008.3 |
| 20260504205214 | 76 | 231 | 9.0 | 10.0 | 0.00 | 0.00 | 0.00 | 47 | 1008.3 |
| 20260504204712 | 75 | 229 | 8.0 | 13.0 | 0.00 | 0.00 | 0.00 | 51 | 1008.4 |
| 20260504204210 | 73 | 264 | 6.0 | 9.0 | 0.00 | 0.00 | 0.00 | 53 | 1008.4 |
| 20260504203709 | 74 | 233 | 5.0 | 9.0 | 0.00 | 0.00 | 0.00 | 51 | 1008.5 |
| 20260504203206 | 75 | 228 | 5.0 | 9.0 | 0.00 | 0.00 | 0.00 | 49 | 1008.4 |
| 20260504202706 | 73 | 182 | 6.0 | 11.0 | 0.00 | 0.00 | 0.00 | 52 | 1008.7 |
| 20260504202203 | 74 | 222 | 11.0 | 16.0 | 0.00 | 0.00 | 0.00 | 49 | 1008.7 |
| 20260504201700 | 75 | 213 | 4.0 | 8.0 | 0.00 | 0.00 | 0.00 | 50 | 1008.7 |
| 20260504201158 | 75 | 187 | 8.0 | 11.0 | 0.00 | 0.00 | 0.00 | 50 | 1009.0 |
| 20260504200655 | 74 | 224 | 7.0 | 13.0 | 0.00 | 0.00 | 0.00 | 49 | 1009.1 |
| 20260504200151 | 73 | 281 | 4.0 | 6.0 | 0.00 | 0.00 | 0.00 | 51 | 1009.2 |
| 20260504195647 | 73 | 309 | 2.0 | 6.0 | 0.00 | 0.00 | 0.00 | 55 | 1009.4 |
| 20260504195143 | 73 | 207 | 3.0 | 8.0 | 0.00 | 0.00 | 0.00 | 54 | 1009.5 |
| 20260504194640 | 72 | 208 | 6.0 | 8.0 | 0.00 | 0.00 | 0.00 | 57 | 1009.5 |
| 20260504194137 | 72 | 231 | 6.0 | 8.0 | 0.00 | 0.00 | 0.00 | 59 | 1009.7 |
| 20260504193633 | 71 | 217 | 6.0 | 7.0 | 0.00 | 0.00 | 0.00 | 60 | 1009.7 |
| 20260504193131 | 69 | 223 | 5.0 | 9.0 | 0.00 | 0.00 | 0.00 | 60 | 1009.7 |
| 20260504192629 | 69 | 206 | 6.0 | 7.0 | 0.00 | 0.00 | 0.00 | 60 | 1010.0 |
| 20260504192127 | 69 | 233 | 4.0 | 9.0 | 0.00 | 0.00 | 0.00 | 61 | 1010.1 |
| 20260504191625 | 69 | 223 | 7.0 | 9.0 | 0.00 | 0.00 | 0.00 | 60 | 1010.0 |
| 20260504191121 | 69 | 206 | 6.0 | 9.0 | 0.00 | 0.00 | 0.00 | 61 | 1009.8 |
| 20260504190617 | 68 | 243 | 6.0 | 10.0 | 0.00 | 0.00 | 0.00 | 60 | 1009.7 |
| 20260504190114 | 68 | 222 | 6.0 | 11.0 | 0.00 | 0.00 | 0.00 | 59 | 1009.9 |
| 20260504185610 | 69 | 216 | 11.0 | 14.0 | 0.00 | 0.00 | 0.00 | 58 | 1009.5 |
| 20260504185107 | 69 | 227 | 9.0 | 18.0 | 0.00 | 0.00 | 0.00 | 58 | 1009.5 |
| 20260504184603 | 69 | 206 | 12.0 | 17.0 | 0.00 | 0.00 | 0.00 | 56 | 1009.7 |
| 20260504184058 | 69 | 212 | 8.0 | 15.0 | 0.00 | 0.00 | 0.00 | 58 | 1009.2 |
| 20260504183555 | 69 | 228 | 10.0 | 13.0 | 0.00 | 0.00 | 0.00 | 57 | 1009.5 |
| 20260504183053 | 68 | 244 | 12.0 | 13.0 | 0.00 | 0.00 | 0.00 | 56 | 1009.5 |
| 20260504182550 | 67 | 230 | 9.0 | 13.0 | 0.00 | 0.00 | 0.00 | 58 | 1009.2 |
| 20260504182047 | 68 | 202 | 7.0 | 10.0 | 0.00 | 0.00 | 0.00 | 59 | 1009.5 |
| 20260504181544 | 68 | 200 | 10.0 | 14.0 | 0.00 | 0.00 | 0.00 | 57 | 1009.4 |
| 20260504181043 | 67 | 212 | 10.0 | 14.0 | 0.00 | 0.00 | 0.00 | 58 | 1009.4 |
| 20260504180541 | 67 | 234 | 9.0 | 14.0 | 0.00 | 0.00 | 0.00 | 58 | 1009.5 |
| 20260504180040 | 67 | 202 | 7.0 | 14.0 | 0.00 | 0.00 | 0.00 | 59 | 1009.4 |
| 20260504175537 | 67 | 205 | 14.0 | 17.0 | 0.00 | 0.00 | 0.00 | 58 | 1008.8 |
| 20260504175033 | 67 | 195 | 11.0 | 14.0 | 0.00 | 0.00 | 0.00 | 59 | 1008.7 |
| 20260504174531 | 68 | 215 | 7.0 | 9.0 | 0.00 | 0.00 | 0.00 | 60 | 1009.1 |
| 20260504174028 | 67 | 175 | 5.0 | 9.0 | 0.00 | 0.00 | 0.00 | 59 | 1009.1 |
| 20260504173525 | 67 | 196 | 5.0 | 9.0 | 0.00 | 0.00 | 0.00 | 62 | 1009.0 |
| 20260504173022 | 67 | 197 | 9.0 | 17.0 | 0.00 | 0.00 | 0.00 | 57 | 1009.2 |
| 20260504172518 | 66 | 184 | 7.0 | 14.0 | 0.00 | 0.00 | 0.00 | 61 | 1009.1 |
| 20260504172015 | 66 | 171 | 6.0 | 10.0 | 0.00 | 0.00 | 0.00 | 60 | 1009.1 |
| 20260504171512 | 66 | 186 | 9.0 | 13.0 | 0.00 | 0.00 | 0.00 | 57 | 1009.5 |
| 20260504171009 | 66 | 184 | 10.0 | 14.0 | 0.00 | 0.00 | 0.00 | 56 | 1009.7 |
| 20260504170504 | 66 | 193 | 5.0 | 14.0 | 0.00 | 0.00 | 0.00 | 58 | 1009.8 |
| 20260504160425 | 64 | 208 | 5.0 | 8.0 | 0.00 | 0.00 | 0.00 | 62 | 1010.1 |
| 20260504150848 | 62 | 213 | 6.0 | 10.0 | 0.00 | 0.00 | 0.00 | 64 | 1010.2 |
| 20260504150345 | 63 | 219 | 7.0 | 15.0 | 0.00 | 0.00 | 0.00 | 62 | 1010.4 |
| 20260504141315 | 59 | 170 | 8.0 | 13.0 | 0.00 | 0.00 | 0.00 | 67 | 1010.8 |
| 20260504140812 | 59 | 195 | 6.0 | 13.0 | 0.00 | 0.00 | 0.00 | 66 | 1010.7 |
| 20260504140307 | 58 | 218 | 11.0 | 13.0 | 0.00 | 0.00 | 0.00 | 69 | 1010.9 |
| 20260504130736 | 55 | 215 | 8.0 | 11.0 | 0.00 | 0.00 | 0.00 | 71 | 1011.2 |
| 20260504130232 | 55 | 215 | 8.0 | 13.0 | 0.00 | 0.00 | 0.00 | 70 | 1011.2 |
| 20260504120156 | 53 | 204 | 6.0 | 9.0 | 0.00 | 0.00 | 0.00 | 66 | 1010.9 |
| 20260504110623 | 51 | 169 | 5.0 | 7.0 | 0.00 | 0.00 | 0.00 | 66 | 1010.9 |
| 20260504110119 | 51 | 190 | 7.0 | 9.0 | 0.00 | 0.00 | 0.00 | 65 | 1010.8 |
| 20260504100545 | 50 | 190 | 4.0 | 8.0 | 0.00 | 0.00 | 0.00 | 65 | 1010.9 |
| 20260504081939 | 51 | 149 | 7.0 | 10.0 | 0.00 | 0.00 | 0.00 | 60 | 1011.8 |
| 20260504081436 | 52 | 193 | 6.0 | 8.0 | 0.00 | 0.00 | 0.00 | 61 | 1011.8 |
| 20260504080931 | 52 | 192 | 6.0 | 9.0 | 0.00 | 0.00 | 0.00 | 60 | 1011.7 |
| 20260504080428 | 52 | 165 | 7.0 | 9.0 | 0.00 | 0.00 | 0.00 | 60 | 1012.0 |
| 20260504070356 | 52 | 167 | 8.0 | 8.0 | 0.00 | 0.00 | 0.00 | 59 | 1012.3 |
| 20260504050743 | 51 | 186 | 4.0 | 4.0 | 0.00 | 0.00 | 0.00 | 63 | 1013.3 |
| 20260504050241 | 51 | 154 | 4.0 | 4.0 | 0.00 | 0.00 | 0.00 | 62 | 1013.3 |
| 20260504045733 | 51 | 176 | 3.0 | 4.0 | 0.00 | 0.00 | 0.00 | 62 | 1013.5 |
| 20260504045233 | 51 | 188 | 1.0 | 4.0 | 0.00 | 0.00 | 0.00 | 62 | 1013.4 |
| 20260504044731 | 51 | 195 | 2.0 | 6.0 | 0.00 | 0.00 | 0.00 | 61 | 1013.6 |
| 20260504044228 | 51 | 204 | 3.0 | 3.0 | 0.00 | 0.00 | 0.00 | 61 | 1013.7 |
| 20260504043725 | 51 | 203 | 3.0 | 3.0 | 0.00 | 0.00 | 0.00 | 61 | 1013.6 |
| 20260504043222 | 51 | 172 | 2.0 | 3.0 | 0.00 | 0.00 | 0.00 | 61 | 1013.8 |
| 20260504042720 | 52 | 214 | 3.0 | 4.0 | 0.00 | 0.00 | 0.00 | 61 | 1013.7 |
| 20260504042216 | 51 | 155 | 4.0 | 4.0 | 0.00 | 0.00 | 0.00 | 60 | 1013.6 |
| 20260504041712 | 52 | 182 | 1.0 | 4.0 | 0.00 | 0.00 | 0.00 | 60 | 1013.8 |
| 20260504041208 | 52 | 155 | 2.0 | 4.0 | 0.00 | 0.00 | 0.00 | 59 | 1013.8 |
| 20260504040704 | 52 | 162 | 3.0 | 6.0 | 0.00 | 0.00 | 0.00 | 60 | 1013.9 |
| 20260504040202 | 52 | 186 | 2.0 | 2.0 | 0.00 | 0.00 | 0.00 | 60 | 1013.9 |
| 20260504035658 | 52 | 182 | 1.0 | 3.0 | 0.00 | 0.00 | 0.00 | 59 | 1014.0 |
| 20260504035155 | 53 | 173 | 2.0 | 3.0 | 0.00 | 0.00 | 0.00 | 59 | 1014.1 |
| 20260504034653 | 53 | 151 | 2.0 | 3.0 | 0.00 | 0.00 | 0.00 | 57 | 1013.9 |
| 20260504034149 | 53 | 164 | 3.0 | 4.0 | 0.00 | 0.00 | 0.00 | 56 | 1014.0 |
| 20260504033648 | 53 | 169 | 2.0 | 7.0 | 0.00 | 0.00 | 0.00 | 56 | 1014.0 |
| 20260504033145 | 53 | 184 | 3.0 | 7.0 | 0.00 | 0.00 | 0.00 | 56 | 1014.1 |
| 20260504032641 | 54 | 185 | 5.0 | 6.0 | 0.00 | 0.00 | 0.00 | 54 | 1014.2 |
| 20260504032138 | 54 | 167 | 3.0 | 6.0 | 0.00 | 0.00 | 0.00 | 54 | 1014.2 |
| 20260504031635 | 54 | 199 | 4.0 | 4.0 | 0.00 | 0.00 | 0.00 | 54 | 1014.3 |
| 20260504031132 | 54 | 184 | 3.0 | 4.0 | 0.00 | 0.00 | 0.00 | 53 | 1014.2 |
| 20260504030628 | 54 | 189 | 3.0 | 4.0 | 0.00 | 0.00 | 0.00 | 52 | 1014.3 |
| 20260504030125 | 55 | 203 | 4.0 | 4.0 | 0.00 | 0.00 | 0.00 | 52 | 1014.2 |
| 20260504025622 | 55 | 178 | 4.0 | 4.0 | 0.00 | 0.00 | 0.00 | 52 | 1014.4 |
| 20260504025119 | 55 | 195 | 4.0 | 7.0 | 0.00 | 0.00 | 0.00 | 51 | 1014.1 |
| 20260504024616 | 54 | 208 | 4.0 | 4.0 | 0.00 | 0.00 | 0.00 | 56 | 1014.4 |
| 20260504024113 | 54 | 207 | 3.0 | 8.0 | 0.00 | 0.00 | 0.00 | 55 | 1014.6 |
| 20260504023609 | 55 | 209 | 4.0 | 6.0 | 0.00 | 0.00 | 0.00 | 55 | 1014.4 |
| 20260504023105 | 55 | 223 | 4.0 | 8.0 | 0.00 | 0.00 | 0.00 | 52 | 1014.1 |
| 20260504022602 | 55 | 192 | 9.0 | 10.0 | 0.00 | 0.00 | 0.00 | 51 | 1014.6 |
| 20260504022058 | 55 | 211 | 6.0 | 11.0 | 0.00 | 0.00 | 0.00 | 48 | 1014.5 |
| 20260504021556 | 55 | 192 | 5.0 | 7.0 | 0.00 | 0.00 | 0.00 | 47 | 1014.3 |
| 20260504021052 | 55 | 178 | 4.0 | 6.0 | 0.00 | 0.00 | 0.00 | 48 | 1013.9 |
| 20260504020549 | 55 | 182 | 1.0 | 3.0 | 0.00 | 0.00 | 0.00 | 51 | 1014.0 |
| 20260504020046 | 55 | 211 | 3.0 | 4.0 | 0.00 | 0.00 | 0.00 | 49 | 1014.3 |
| 20260504015542 | 55 | 195 | 2.0 | 4.0 | 0.00 | 0.00 | 0.00 | 49 | 1013.9 |
| 20260504015038 | 55 | 187 | 2.0 | 3.0 | 0.00 | 0.00 | 0.00 | 50 | 1014.0 |
| 20260504014534 | 55 | 208 | 1.0 | 4.0 | 0.00 | 0.00 | 0.00 | 50 | 1014.1 |
| 20260504014032 | 55 | 223 | 2.0 | 2.0 | 0.00 | 0.00 | 0.00 | 50 | 1014.1 |
| 20260504013529 | 55 | 203 | 1.0 | 2.0 | 0.00 | 0.00 | 0.00 | 50 | 1013.9 |
| 20260504013026 | 56 | 203 | 2.0 | 3.0 | 0.00 | 0.00 | 0.00 | 49 | 1014.2 |
| 20260504012524 | 56 | 209 | 3.0 | 3.0 | 0.00 | 0.00 | 0.00 | 47 | 1014.3 |
| 20260504012022 | 56 | 190 | 3.0 | 3.0 | 0.00 | 0.00 | 0.00 | 47 | 1014.2 |
| 20260504011518 | 56 | 182 | 2.0 | 4.0 | 0.00 | 0.00 | 0.00 | 47 | 1014.2 |
| 20260504011014 | 56 | 195 | 3.0 | 4.0 | 0.00 | 0.00 | 0.00 | 45 | 1014.2 |
| 20260504010510 | 56 | 173 | 4.0 | 4.0 | 0.00 | 0.00 | 0.00 | 45 | 1014.2 |
| 20260504010006 | 56 | 162 | 2.0 | 3.0 | 0.00 | 0.00 | 0.00 | 46 | 1014.0 |
| 20260504005503 | 56 | 188 | 3.0 | 4.0 | 0.00 | 0.00 | 0.00 | 45 | 1013.8 |
| 20260504005000 | 56 | 192 | 2.0 | 4.0 | 0.00 | 0.00 | 0.00 | 45 | 1014.1 |
| 20260504004458 | 56 | 196 | 3.0 | 3.0 | 0.00 | 0.00 | 0.00 | 46 | 1013.7 |
| 20260504003954 | 56 | 197 | 2.0 | 3.0 | 0.00 | 0.00 | 0.00 | 45 | 1013.9 |
| 20260504003450 | 56 | 207 | 2.0 | 3.0 | 0.00 | 0.00 | 0.00 | 44 | 1013.6 |
| 20260504002948 | 56 | 203 | 4.0 | 6.0 | 0.00 | 0.00 | 0.00 | 44 | 1013.6 |
| 20260504002445 | 56 | 197 | 3.0 | 4.0 | 0.00 | 0.00 | 0.00 | 43 | 1013.7 |
| 20260504001942 | 57 | 189 | 2.0 | 4.0 | 0.00 | 0.00 | 0.00 | 43 | 1013.6 |
| 20260504001440 | 57 | 174 | 3.0 | 7.0 | 0.00 | 0.00 | 0.00 | 42 | 1013.4 |
| 20260504000936 | 57 | 185 | 3.0 | 4.0 | 0.00 | 0.00 | 0.00 | 42 | 1013.5 |
| 20260504000433 | 57 | 192 | 3.0 | 4.0 | 0.00 | 0.00 | 0.00 | 43 | 1013.5 |
| 20260503235930 | 57 | 204 | 6.0 | 7.0 | 0.00 | 0.00 | 0.00 | 41 | 1013.5 |
| 20260503235428 | 57 | 158 | 4.0 | 7.0 | 0.00 | 0.00 | 0.00 | 42 | 1013.7 |
| 20260503234925 | 58 | 193 | 2.0 | 6.0 | 0.00 | 0.00 | 0.00 | 45 | 1013.9 |
| 20260503234423 | 58 | 196 | 6.0 | 8.0 | 0.00 | 0.00 | 0.00 | 41 | 1014.1 |
| 20260503233920 | 58 | 210 | 4.0 | 6.0 | 0.00 | 0.00 | 0.00 | 42 | 1014.1 |
| 20260503233417 | 57 | 173 | 5.0 | 7.0 | 0.00 | 0.00 | 0.00 | 42 | 1014.1 |
| 20260503232913 | 57 | 211 | 4.0 | 6.0 | 0.00 | 0.00 | 0.00 | 46 | 1014.1 |